BAW588 EGLL-LIMC

Flight info

Callsign BAW588
Flight time 1h 45m
Altitude 23000
Route MODMI M185 MID L612 BOGNA/N0454F390 UL612 VEULE DCT TEPRI UN491 POGZI DCT GELTA DCT LUVAL DCT SHARA DCT DEVDI DCT BASGO/N0435F290 Z424 AKASU/N0374F190 Z424 RIXUV
Aircraft A20N/M-SDE2E3FGHIRWXY/LB1

Departure

Time 2026-05-06 08:55
Airport London Heathrow Airport (EGLL)

Arrival

Time 2026-05-06 10:41
Airport Milan Malpensa International Airport (LIMC)
Time Latitude Longitude Altitude Speed Heading
2026-05-06 08:23 51.47186 -0.48588 88 ft 0 kts 269°
2026-05-06 08:43 51.47186 -0.48576 91 ft 2 kts 265°
2026-05-06 08:43 51.47188 -0.48550 87 ft 2 kts 263°
2026-05-06 08:44 51.47190 -0.48524 87 ft 2 kts 256°
2026-05-06 08:44 51.47196 -0.48499 91 ft 2 kts 239°
2026-05-06 08:44 51.47206 -0.48479 90 ft 2 kts 203°
2026-05-06 08:44 51.47219 -0.48474 89 ft 1 kts 181°
2026-05-06 08:45 51.47221 -0.48474 89 ft 0 kts 181°
2026-05-06 08:50 51.47218 -0.48474 89 ft 2 kts 181°
2026-05-06 08:51 51.47191 -0.48475 90 ft 6 kts 181°
2026-05-06 08:51 51.47133 -0.48476 88 ft 10 kts 180°
2026-05-06 08:51 51.47048 -0.48473 88 ft 14 kts 179°
2026-05-06 08:51 51.46941 -0.48471 90 ft 16 kts 179°
2026-05-06 08:52 51.46843 -0.48469 92 ft 12 kts 180°
2026-05-06 08:52 51.46745 -0.48469 92 ft 16 kts 179°
2026-05-06 08:52 51.46648 -0.48467 94 ft 13 kts 179°
2026-05-06 08:52 51.46600 -0.48467 95 ft 0 kts 180°
2026-05-06 08:53 51.46598 -0.48467 95 ft 1 kts 180°
2026-05-06 08:53 51.46562 -0.48467 95 ft 10 kts 180°
2026-05-06 08:54 51.46477 -0.48411 94 ft 16 kts 103°
2026-05-06 08:54 51.46478 -0.48354 94 ft 0 kts 87°
2026-05-06 08:54 51.46480 -0.48299 94 ft 25 kts 88°
2026-05-06 08:54 51.46485 -0.47618 90 ft 94 kts 90°
2026-05-06 08:55 51.46487 -0.46280 92 ft 144 kts 89°
2026-05-06 08:55 51.46487 -0.44528 390 ft 158 kts 87°
2026-05-06 08:55 51.46461 -0.42773 1012 ft 160 kts 86°
2026-05-06 08:55 51.46337 -0.40995 1641 ft 165 kts 105°
2026-05-06 08:56 51.45785 -0.39294 2082 ft 183 kts 120°
2026-05-06 08:56 51.44931 -0.37625 2356 ft 210 kts 141°
2026-05-06 08:56 51.43527 -0.36839 3035 ft 216 kts 171°
2026-05-06 08:56 51.42000 -0.36383 3777 ft 233 kts 166°
2026-05-06 08:57 51.40320 -0.36025 4489 ft 255 kts 184°
2026-05-06 08:57 51.38552 -0.36773 5082 ft 274 kts 207°
2026-05-06 08:57 51.36792 -0.38134 5501 ft 285 kts 209°
2026-05-06 08:57 51.35031 -0.39535 5610 ft 282 kts 210°
2026-05-06 08:58 51.33269 -0.40937 5737 ft 282 kts 209°
2026-05-06 08:58 51.31515 -0.42322 5826 ft 281 kts 209°
2026-05-06 08:58 51.29749 -0.43700 5974 ft 282 kts 209°
2026-05-06 08:58 51.27985 -0.45059 6170 ft 282 kts 209°
2026-05-06 08:59 51.26219 -0.46428 6306 ft 279 kts 209°
2026-05-06 08:59 51.24464 -0.47780 6730 ft 283 kts 209°
2026-05-06 08:59 51.22695 -0.49146 7225 ft 283 kts 209°
2026-05-06 08:59 51.20912 -0.50530 7730 ft 285 kts 208°
2026-05-06 09:00 51.19119 -0.51924 8244 ft 290 kts 208°
2026-05-06 09:00 51.17303 -0.53331 8764 ft 291 kts 208°
2026-05-06 09:00 51.15474 -0.54745 9298 ft 296 kts 208°
2026-05-06 09:00 51.13611 -0.56185 9834 ft 297 kts 207°
2026-05-06 09:01 51.11716 -0.57646 10346 ft 311 kts 207°
2026-05-06 09:01 51.09711 -0.59196 10843 ft 329 kts 208°
2026-05-06 09:01 51.07566 -0.60683 11346 ft 345 kts 197°
2026-05-06 09:01 51.05148 -0.61057 11863 ft 356 kts 175°
2026-05-06 09:02 51.02783 -0.60026 12374 ft 353 kts 154°
2026-05-06 09:02 51.00663 -0.57950 12915 ft 361 kts 145°
2026-05-06 09:02 50.98629 -0.55632 13448 ft 356 kts 144°
2026-05-06 09:02 50.96612 -0.53307 13966 ft 363 kts 145°
2026-05-06 09:03 50.94544 -0.50988 14453 ft 365 kts 146°
2026-05-06 09:03 50.92456 -0.48710 14945 ft 366 kts 146°
2026-05-06 09:03 50.90335 -0.46433 15448 ft 372 kts 147°
2026-05-06 09:03 50.88193 -0.44153 15943 ft 378 kts 147°
2026-05-06 09:04 50.86002 -0.41830 16466 ft 380 kts 147°
2026-05-06 09:04 50.83796 -0.39497 16984 ft 382 kts 147°
2026-05-06 09:04 50.81573 -0.37146 17604 ft 387 kts 147°
2026-05-06 09:04 50.79337 -0.34785 18118 ft 385 kts 147°
2026-05-06 09:05 50.77100 -0.32423 18568 ft 390 kts 147°
2026-05-06 09:05 50.74831 -0.30031 19001 ft 393 kts 147°
2026-05-06 09:05 50.72554 -0.27632 19432 ft 394 kts 148°
2026-05-06 09:05 50.70266 -0.25225 19881 ft 397 kts 148°
2026-05-06 09:06 50.67963 -0.22805 20332 ft 399 kts 148°
2026-05-06 09:06 50.65651 -0.20378 20789 ft 400 kts 148°
2026-05-06 09:06 50.63326 -0.17940 21246 ft 402 kts 148°
2026-05-06 09:06 50.60993 -0.15497 21709 ft 403 kts 148°
2026-05-06 09:07 50.58652 -0.13047 22194 ft 405 kts 148°
2026-05-06 09:07 50.56298 -0.10588 22680 ft 407 kts 148°
2026-05-06 09:07 50.53928 -0.08115 23181 ft 409 kts 148°
2026-05-06 09:07 50.51551 -0.05636 23671 ft 411 kts 148°
2026-05-06 09:08 50.49163 -0.03148 24092 ft 413 kts 148°
2026-05-06 09:08 50.46761 -0.00651 24526 ft 415 kts 148°
2026-05-06 09:08 50.44354 0.01847 24954 ft 415 kts 148°
2026-05-06 09:08 50.41934 0.04356 25392 ft 418 kts 147°
2026-05-06 09:09 50.39492 0.06880 25847 ft 422 kts 147°
2026-05-06 09:09 50.37035 0.09420 26299 ft 425 kts 147°
2026-05-06 09:09 50.34559 0.11976 26765 ft 427 kts 147°
2026-05-06 09:09 50.32070 0.14540 27240 ft 430 kts 147°
2026-05-06 09:10 50.29567 0.17118 27721 ft 431 kts 148°
2026-05-06 09:10 50.27056 0.19701 28210 ft 432 kts 148°
2026-05-06 09:10 50.24539 0.22281 28685 ft 434 kts 148°
2026-05-06 09:10 50.21990 0.24891 28809 ft 442 kts 148°
2026-05-06 09:11 50.19450 0.27490 28923 ft 443 kts 148°
2026-05-06 09:11 50.14297 0.32780 28973 ft 444 kts 147°
2026-05-06 09:12 50.09146 0.38074 28963 ft 443 kts 147°
2026-05-06 09:12 50.03994 0.43348 28963 ft 443 kts 147°
2026-05-06 09:13 49.98850 0.48594 28965 ft 441 kts 147°
2026-05-06 09:13 49.93721 0.53813 28960 ft 442 kts 146°
2026-05-06 09:14 49.89439 0.58160 28958 ft 442 kts 146°
2026-05-06 09:14 49.84558 0.63927 28952 ft 442 kts 135°
2026-05-06 09:15 49.79706 0.72085 28955 ft 440 kts 132°
2026-05-06 09:15 49.76272 0.77921 28944 ft 442 kts 132°
2026-05-06 09:16 49.72136 0.84915 28950 ft 441 kts 131°
2026-05-06 09:16 49.67991 0.91899 28932 ft 438 kts 132°
2026-05-06 09:17 49.63895 0.98782 28934 ft 436 kts 132°
2026-05-06 09:17 49.59779 1.05683 28935 ft 436 kts 132°
2026-05-06 09:18 49.55663 1.12561 28933 ft 436 kts 132°
2026-05-06 09:18 49.51542 1.19431 28938 ft 436 kts 131°
2026-05-06 09:19 49.47430 1.26267 28938 ft 438 kts 132°
2026-05-06 09:19 49.43289 1.33135 28937 ft 438 kts 132°
2026-05-06 09:20 49.39138 1.39999 28934 ft 438 kts 131°
2026-05-06 09:20 49.34984 1.46850 28927 ft 438 kts 132°
2026-05-06 09:21 49.30825 1.53692 28922 ft 438 kts 131°
2026-05-06 09:21 49.26677 1.60500 28915 ft 439 kts 131°
2026-05-06 09:22 49.22500 1.67332 28911 ft 439 kts 131°
2026-05-06 09:22 49.18318 1.74158 28911 ft 439 kts 131°
2026-05-06 09:23 49.14132 1.80971 28905 ft 438 kts 132°
2026-05-06 09:23 49.09972 1.87723 28910 ft 439 kts 131°
2026-05-06 09:24 49.05786 1.94505 28916 ft 439 kts 131°
2026-05-06 09:24 49.01589 2.01283 28911 ft 439 kts 132°
2026-05-06 09:25 48.97391 2.08043 28908 ft 439 kts 131°
2026-05-06 09:25 48.93186 2.14797 28907 ft 439 kts 131°
2026-05-06 09:26 48.88983 2.21529 28907 ft 433 kts 132°
2026-05-06 09:26 48.84896 2.28062 28910 ft 431 kts 132°
2026-05-06 09:27 48.80763 2.34651 28910 ft 432 kts 132°
2026-05-06 09:27 48.76606 2.41259 28911 ft 430 kts 132°
2026-05-06 09:28 48.72460 2.47835 28911 ft 431 kts 132°
2026-05-06 09:28 48.68344 2.54346 28910 ft 431 kts 132°
2026-05-06 09:29 48.64190 2.60900 28891 ft 431 kts 132°
2026-05-06 09:29 48.60051 2.67414 28884 ft 432 kts 133°
2026-05-06 09:30 48.56300 2.74451 28884 ft 427 kts 115°
2026-05-06 09:30 48.55259 2.78630 28884 ft 425 kts 102°
2026-05-06 09:30 48.54888 2.83043 28888 ft 425 kts 92°
2026-05-06 09:31 48.54646 2.91926 28880 ft 425 kts 91°
2026-05-06 09:31 48.54373 3.00884 28871 ft 427 kts 92°
2026-05-06 09:32 48.54074 3.09918 28874 ft 440 kts 94°
2026-05-06 09:32 48.53750 3.19208 28867 ft 442 kts 95°
2026-05-06 09:33 48.53418 3.28429 28867 ft 443 kts 95°
2026-05-06 09:33 48.53075 3.37699 28859 ft 442 kts 94°
2026-05-06 09:34 48.52725 3.46974 28849 ft 442 kts 95°
2026-05-06 09:34 48.52368 3.56259 28853 ft 446 kts 95°
2026-05-06 09:35 48.52000 3.65600 28849 ft 446 kts 95°
2026-05-06 09:35 48.51626 3.74935 28849 ft 446 kts 95°
2026-05-06 09:36 48.51247 3.84220 28849 ft 446 kts 96°
2026-05-06 09:36 48.50857 3.93552 28851 ft 446 kts 96°
2026-05-06 09:37 48.50283 4.02849 28851 ft 444 kts 103°
2026-05-06 09:37 48.48740 4.11828 28849 ft 442 kts 108°
2026-05-06 09:38 48.47109 4.20775 28850 ft 442 kts 108°
2026-05-06 09:38 48.45486 4.29662 28847 ft 442 kts 108°
2026-05-06 09:39 48.43851 4.38563 28840 ft 440 kts 108°
2026-05-06 09:39 48.42205 4.47459 28835 ft 441 kts 108°
2026-05-06 09:40 48.40552 4.56355 28826 ft 441 kts 108°
2026-05-06 09:40 48.38072 4.69633 28821 ft 440 kts 108°
2026-05-06 09:41 48.36419 4.78451 28818 ft 429 kts 109°
2026-05-06 09:41 48.34782 4.87115 28817 ft 432 kts 110°
2026-05-06 09:42 48.33132 4.95797 28818 ft 431 kts 110°
2026-05-06 09:42 48.31500 5.04364 28815 ft 428 kts 110°
2026-05-06 09:43 48.29850 5.12981 28818 ft 429 kts 110°
2026-05-06 09:43 48.28173 5.21552 28814 ft 427 kts 110°
2026-05-06 09:44 48.26448 5.30087 28813 ft 427 kts 110°
2026-05-06 09:44 48.24721 5.38628 28812 ft 427 kts 110°
2026-05-06 09:45 48.22995 5.47150 28812 ft 427 kts 110°
2026-05-06 09:45 48.21261 5.55676 28809 ft 427 kts 110°
2026-05-06 09:46 48.19528 5.64163 28813 ft 426 kts 110°
2026-05-06 09:46 48.17788 5.72644 28814 ft 426 kts 111°
2026-05-06 09:47 48.16041 5.81128 28817 ft 426 kts 111°
2026-05-06 09:47 48.14290 5.89591 28818 ft 426 kts 111°
2026-05-06 09:48 48.12543 5.98001 28805 ft 425 kts 111°
2026-05-06 09:48 48.10786 6.06428 28820 ft 425 kts 111°
2026-05-06 09:49 48.09018 6.14863 28818 ft 425 kts 111°
2026-05-06 09:49 48.07245 6.23293 28819 ft 425 kts 111°
2026-05-06 09:50 48.05468 6.31705 28816 ft 425 kts 111°
2026-05-06 09:50 48.03676 6.40147 28804 ft 425 kts 111°
2026-05-06 09:51 48.01886 6.48542 28817 ft 426 kts 111°
2026-05-06 09:51 48.00084 6.56972 28819 ft 426 kts 111°
2026-05-06 09:52 47.98273 6.65405 28822 ft 426 kts 111°
2026-05-06 09:52 47.96163 6.73643 28822 ft 424 kts 116°
2026-05-06 09:53 47.93973 6.81758 28820 ft 426 kts 115°
2026-05-06 09:53 47.91747 6.89982 28818 ft 426 kts 116°
2026-05-06 09:54 47.89517 6.98179 28820 ft 426 kts 116°
2026-05-06 09:54 47.87290 7.06326 28820 ft 426 kts 116°
2026-05-06 09:55 47.85043 7.14521 28819 ft 427 kts 116°
2026-05-06 09:55 47.82789 7.22711 28830 ft 434 kts 117°
2026-05-06 09:56 47.80495 7.31023 28812 ft 432 kts 117°
2026-05-06 09:56 47.78200 7.39308 28833 ft 433 kts 117°
2026-05-06 09:57 47.75917 7.47517 28820 ft 431 kts 118°
2026-05-06 09:57 47.74471 7.51365 28823 ft 424 kts 130°
2026-05-06 09:57 47.72525 7.54598 28824 ft 417 kts 142°
2026-05-06 09:58 47.70187 7.57092 28824 ft 411 kts 154°
2026-05-06 09:58 47.67612 7.58871 28826 ft 406 kts 161°
2026-05-06 09:58 47.62432 7.62210 28828 ft 406 kts 161°
2026-05-06 09:59 47.57247 7.65559 28826 ft 406 kts 161°
2026-05-06 09:59 47.52076 7.68896 28828 ft 402 kts 161°
2026-05-06 10:00 47.46961 7.72188 28829 ft 403 kts 161°
2026-05-06 10:00 47.41820 7.75486 28833 ft 402 kts 161°
2026-05-06 10:01 47.36675 7.78780 28827 ft 403 kts 161°
2026-05-06 10:01 47.32394 7.81518 28823 ft 403 kts 161°
2026-05-06 10:02 47.27273 7.84788 28834 ft 401 kts 161°
2026-05-06 10:02 47.22139 7.88056 28829 ft 402 kts 161°
2026-05-06 10:03 47.17002 7.91320 28836 ft 402 kts 161°
2026-05-06 10:03 47.11899 7.94556 28831 ft 401 kts 161°
2026-05-06 10:04 47.06770 7.97802 28832 ft 401 kts 162°
2026-05-06 10:04 47.01636 8.01043 28828 ft 401 kts 162°
2026-05-06 10:05 46.96544 8.04251 28832 ft 401 kts 162°
2026-05-06 10:05 46.91419 8.07471 28831 ft 401 kts 162°
2026-05-06 10:06 46.86286 8.10691 28831 ft 401 kts 162°
2026-05-06 10:06 46.81152 8.13904 28836 ft 401 kts 162°
2026-05-06 10:07 46.76012 8.17119 28829 ft 402 kts 163°
2026-05-06 10:07 46.70863 8.20327 28475 ft 401 kts 162°
2026-05-06 10:08 46.68301 8.21918 28190 ft 400 kts 162°
2026-05-06 10:08 46.65751 8.23499 27900 ft 398 kts 162°
2026-05-06 10:08 46.63199 8.25087 27650 ft 399 kts 162°
2026-05-06 10:08 46.60658 8.26668 27381 ft 396 kts 162°
2026-05-06 10:09 46.58126 8.28240 27127 ft 396 kts 161°
2026-05-06 10:09 46.55590 8.29807 26870 ft 395 kts 161°
2026-05-06 10:09 46.53071 8.31365 26610 ft 392 kts 161°
2026-05-06 10:09 46.50565 8.32912 26349 ft 391 kts 161°
2026-05-06 10:10 46.48057 8.34459 26094 ft 391 kts 161°
2026-05-06 10:10 46.45554 8.36004 25844 ft 390 kts 161°
2026-05-06 10:10 46.43059 8.37542 25593 ft 389 kts 161°
2026-05-06 10:10 46.40575 8.39070 25355 ft 387 kts 160°
2026-05-06 10:11 46.38093 8.40593 25096 ft 387 kts 160°
2026-05-06 10:11 46.35652 8.42090 24709 ft 384 kts 160°
2026-05-06 10:11 46.33202 8.43592 24183 ft 382 kts 160°
2026-05-06 10:11 46.30774 8.45086 23670 ft 377 kts 160°
2026-05-06 10:12 46.28329 8.46409 23009 ft 373 kts 165°
2026-05-06 10:12 46.25826 8.47320 22343 ft 369 kts 172°
2026-05-06 10:12 46.23303 8.47821 21677 ft 364 kts 177°
2026-05-06 10:12 46.20788 8.48157 21036 ft 361 kts 176°
2026-05-06 10:13 46.18309 8.48502 20696 ft 356 kts 176°
2026-05-06 10:13 46.15829 8.48852 20454 ft 360 kts 176°
2026-05-06 10:13 46.13337 8.49207 20205 ft 359 kts 176°
2026-05-06 10:13 46.10888 8.49807 19998 ft 354 kts 169°
2026-05-06 10:14 46.08523 8.50796 19579 ft 355 kts 163°
2026-05-06 10:14 46.06216 8.52057 19032 ft 355 kts 162°
2026-05-06 10:14 46.03902 8.53328 18420 ft 357 kts 162°
2026-05-06 10:14 46.01594 8.54589 17809 ft 353 kts 162°
2026-05-06 10:15 45.99304 8.55831 17212 ft 350 kts 161°
2026-05-06 10:15 45.97041 8.57054 16615 ft 346 kts 161°
2026-05-06 10:15 45.94796 8.58262 16098 ft 343 kts 161°
2026-05-06 10:15 45.92571 8.59454 15512 ft 340 kts 161°
2026-05-06 10:16 45.90405 8.60810 14929 ft 338 kts 154°
2026-05-06 10:16 45.88396 8.62564 14375 ft 337 kts 147°
2026-05-06 10:16 45.86560 8.64638 13862 ft 335 kts 142°
2026-05-06 10:16 45.84765 8.66742 13304 ft 332 kts 143°
2026-05-06 10:17 45.82978 8.68823 12602 ft 332 kts 143°
2026-05-06 10:17 45.81178 8.70919 11975 ft 332 kts 144°
2026-05-06 10:17 45.79415 8.72958 11420 ft 329 kts 144°
2026-05-06 10:17 45.77615 8.75034 10864 ft 326 kts 144°
2026-05-06 10:18 45.75777 8.76898 10342 ft 321 kts 151°
2026-05-06 10:18 45.73851 8.78402 9812 ft 319 kts 154°
2026-05-06 10:18 45.71894 8.79896 9582 ft 309 kts 154°
2026-05-06 10:18 45.70036 8.81320 9468 ft 298 kts 154°
2026-05-06 10:19 45.68233 8.82700 9296 ft 290 kts 154°
2026-05-06 10:19 45.66510 8.84019 9196 ft 279 kts 154°
2026-05-06 10:19 45.64850 8.85302 9036 ft 262 kts 154°
2026-05-06 10:19 45.63299 8.86502 8874 ft 246 kts 154°
2026-05-06 10:20 45.61738 8.87553 8834 ft 248 kts 162°
2026-05-06 10:20 45.60088 8.88175 8832 ft 248 kts 172°
2026-05-06 10:20 45.58397 8.88611 8831 ft 247 kts 171°
2026-05-06 10:20 45.56709 8.89062 8835 ft 247 kts 171°
2026-05-06 10:21 45.55022 8.89520 8830 ft 246 kts 171°
2026-05-06 10:21 45.53338 8.89979 8830 ft 247 kts 171°
2026-05-06 10:21 45.51654 8.90434 8756 ft 245 kts 171°
2026-05-06 10:21 45.49983 8.90889 8441 ft 244 kts 171°
2026-05-06 10:22 45.48319 8.91343 8090 ft 242 kts 171°
2026-05-06 10:22 45.46665 8.91794 7758 ft 241 kts 171°
2026-05-06 10:22 45.45023 8.92243 7502 ft 242 kts 170°
2026-05-06 10:22 45.43371 8.92698 7262 ft 242 kts 171°
2026-05-06 10:23 45.41732 8.93141 7132 ft 236 kts 171°
2026-05-06 10:23 45.40158 8.93567 6948 ft 226 kts 171°
2026-05-06 10:23 45.38606 8.93986 6660 ft 227 kts 171°
2026-05-06 10:23 45.37066 8.94409 6460 ft 223 kts 172°
2026-05-06 10:24 45.35559 8.94831 6361 ft 218 kts 172°
2026-05-06 10:24 45.34065 8.95234 6114 ft 220 kts 172°
2026-05-06 10:24 45.32563 8.95605 5930 ft 219 kts 172°
2026-05-06 10:24 45.31079 8.95988 5824 ft 212 kts 172°
2026-05-06 10:25 45.29590 8.96390 5786 ft 224 kts 171°
2026-05-06 10:25 45.28084 8.96822 5685 ft 217 kts 171°
2026-05-06 10:25 45.26595 8.97246 5652 ft 221 kts 171°
2026-05-06 10:25 45.25092 8.97661 5612 ft 218 kts 171°
2026-05-06 10:26 45.23634 8.98058 5498 ft 209 kts 172°
2026-05-06 10:26 45.22207 8.98445 5481 ft 210 kts 172°
2026-05-06 10:26 45.20769 8.98828 5506 ft 210 kts 172°
2026-05-06 10:26 45.19335 8.99211 5470 ft 209 kts 171°
2026-05-06 10:27 45.17909 8.99592 5436 ft 209 kts 172°
2026-05-06 10:27 45.16481 8.99970 5402 ft 209 kts 172°
2026-05-06 10:27 45.15050 9.00349 5368 ft 209 kts 172°
2026-05-06 10:27 45.13618 9.00732 5329 ft 209 kts 172°
2026-05-06 10:28 45.12188 9.01115 5309 ft 209 kts 171°
2026-05-06 10:28 45.10758 9.01500 5269 ft 209 kts 171°
2026-05-06 10:28 45.09338 9.01881 5235 ft 207 kts 171°
2026-05-06 10:28 45.07916 9.02107 5196 ft 205 kts 187°
2026-05-06 10:29 45.06593 9.01393 5167 ft 207 kts 216°
2026-05-06 10:29 45.05704 8.99772 5119 ft 216 kts 245°
2026-05-06 10:29 45.05371 8.97672 5080 ft 219 kts 255°
2026-05-06 10:29 45.05105 8.95558 5048 ft 218 kts 255°
2026-05-06 10:30 45.04833 8.93449 5010 ft 218 kts 255°
2026-05-06 10:30 45.04696 8.91308 4975 ft 224 kts 274°
2026-05-06 10:30 45.05342 8.89269 4949 ft 237 kts 307°
2026-05-06 10:30 45.06713 8.87940 4916 ft 245 kts 339°
2026-05-06 10:31 45.08384 8.87383 4882 ft 248 kts 349°
2026-05-06 10:31 45.10103 8.87040 4858 ft 259 kts 351°
2026-05-06 10:31 45.12031 8.86651 4836 ft 308 kts 351°
2026-05-06 10:31 45.14065 8.86234 4806 ft 329 kts 351°
2026-05-06 10:32 45.16284 8.85756 4755 ft 324 kts 351°
2026-05-06 10:32 45.18457 8.85286 4689 ft 305 kts 351°
2026-05-06 10:32 45.20476 8.84859 4637 ft 283 kts 351°
2026-05-06 10:32 45.22432 8.84460 4605 ft 285 kts 350°
2026-05-06 10:33 45.24355 8.83996 4634 ft 275 kts 348°
2026-05-06 10:33 45.26189 8.83502 4490 ft 261 kts 348°
2026-05-06 10:33 45.27929 8.83028 4401 ft 248 kts 348°
2026-05-06 10:33 45.29580 8.82576 4286 ft 235 kts 347°
2026-05-06 10:34 45.31145 8.82146 4174 ft 222 kts 348°
2026-05-06 10:34 45.32616 8.81742 4119 ft 207 kts 348°
2026-05-06 10:34 45.34053 8.81346 4128 ft 214 kts 348°
2026-05-06 10:34 45.35506 8.80948 4127 ft 212 kts 347°
2026-05-06 10:35 45.36942 8.80554 4123 ft 205 kts 348°
2026-05-06 10:35 45.38285 8.80186 4121 ft 188 kts 347°
2026-05-06 10:35 45.39557 8.79834 4137 ft 189 kts 347°
2026-05-06 10:35 45.40810 8.79490 4121 ft 176 kts 347°
2026-05-06 10:36 45.41963 8.79174 4127 ft 168 kts 347°
2026-05-06 10:36 45.43117 8.78854 4125 ft 167 kts 347°
2026-05-06 10:36 45.44264 8.78538 4034 ft 170 kts 348°
2026-05-06 10:36 45.45440 8.78214 3934 ft 171 kts 348°
2026-05-06 10:37 45.46595 8.77896 3715 ft 167 kts 348°
2026-05-06 10:37 45.47735 8.77580 3510 ft 165 kts 349°
2026-05-06 10:37 45.48827 8.77280 3291 ft 154 kts 349°
2026-05-06 10:37 45.49877 8.76990 3092 ft 156 kts 349°
2026-05-06 10:38 45.50931 8.76699 2876 ft 153 kts 350°
2026-05-06 10:38 45.51975 8.76411 2674 ft 153 kts 351°
2026-05-06 10:38 45.53006 8.76126 2470 ft 150 kts 351°
2026-05-06 10:38 45.54032 8.75842 2273 ft 150 kts 351°
2026-05-06 10:39 45.55045 8.75562 2074 ft 147 kts 351°
2026-05-06 10:39 45.56032 8.75289 1874 ft 146 kts 351°
2026-05-06 10:39 45.57060 8.74983 1670 ft 149 kts 349°
2026-05-06 10:39 45.58038 8.74661 1434 ft 142 kts 350°
2026-05-06 10:40 45.59005 8.74396 1268 ft 142 kts 354°
2026-05-06 10:40 45.59993 8.74170 1077 ft 144 kts 355°
2026-05-06 10:40 45.60957 8.73934 859 ft 137 kts 356°
2026-05-06 10:40 45.61896 8.73675 732 ft 140 kts 354°
2026-05-06 10:41 45.62741 8.73439 729 ft 99 kts 349°
2026-05-06 10:41 45.63222 8.73301 737 ft 42 kts 347°
2026-05-06 10:41 45.63461 8.73231 744 ft 23 kts 349°
2026-05-06 10:41 45.63616 8.73173 747 ft 23 kts 332°
2026-05-06 10:42 45.63750 8.73033 748 ft 25 kts 317°
2026-05-06 10:42 45.63844 8.72862 751 ft 18 kts 304°
2026-05-06 10:42 45.63918 8.72706 755 ft 20 kts 303°
2026-05-06 10:42 45.63958 8.72518 755 ft 20 kts 255°
2026-05-06 10:43 45.63928 8.72335 757 ft 16 kts 259°
2026-05-06 10:43 45.63915 8.72172 755 ft 18 kts 278°
2026-05-06 10:43 45.63906 8.71975 754 ft 21 kts 261°
2026-05-06 10:44 45.63693 8.71857 753 ft 22 kts 168°
2026-05-06 10:44 45.63590 8.71884 753 ft 16 kts 169°
2026-05-06 10:44 45.63468 8.71913 750 ft 19 kts 185°
2026-05-06 10:44 45.63398 8.71826 747 ft 14 kts 185°
2026-05-06 10:45 45.63289 8.71856 746 ft 18 kts 167°
2026-05-06 10:45 45.63176 8.71887 745 ft 16 kts 169°
2026-05-06 10:45 45.63052 8.71920 740 ft 20 kts 169°
2026-05-06 10:45 45.62924 8.71956 739 ft 19 kts 169°
2026-05-06 10:46 45.62786 8.71995 737 ft 20 kts 169°
2026-05-06 10:46 45.62663 8.71977 735 ft 11 kts 236°
2026-05-06 10:46 45.62662 8.71907 735 ft 8 kts 271°
2026-05-06 10:46 45.62649 8.71815 735 ft 12 kts 256°
2026-05-06 10:47 45.62631 8.71683 735 ft 15 kts 256°
2026-05-06 10:47 45.62589 8.71665 734 ft 7 kts 167°
2026-05-06 10:47 45.62551 8.71673 733 ft 10 kts 172°
2026-05-06 10:47 45.62545 8.71674 733 ft 0 kts 172°